TimeCDT,TemperatureF,Dew PointF,Humidity,Sea Level PressureIn,VisibilityMPH,Wind Direction,Wind SpeedMPH,Gust SpeedMPH,PrecipitationIn,Events,Conditions,WindDirDegrees,DateUTC
12:53 AM,48.0,33.1,56,30.09,10.0,NNW,8.1,-,N/A,,Clear,330,2013-03-11 05:53:00
1:53 AM,46.9,34.0,61,30.09,10.0,NNW,5.8,-,N/A,,Clear,340,2013-03-11 06:53:00
2:53 AM,46.0,34.0,63,30.08,10.0,North,4.6,-,N/A,,Clear,350,2013-03-11 07:53:00
3:53 AM,45.0,33.1,63,30.06,10.0,NW,4.6,-,N/A,,Clear,320,2013-03-11 08:53:00
4:53 AM,44.1,35.1,71,30.05,10.0,NW,6.9,-,N/A,,Clear,320,2013-03-11 09:53:00
5:53 AM,43.0,33.1,68,30.06,10.0,Calm,Calm,-,N/A,,Clear,0,2013-03-11 10:53:00
6:53 AM,44.1,30.0,58,30.09,10.0,NW,15.0,20.7,N/A,,Clear,320,2013-03-11 11:53:00
7:53 AM,42.1,30.0,62,30.12,10.0,WNW,10.4,-,N/A,,Clear,290,2013-03-11 12:53:00
8:53 AM,44.1,28.9,55,30.14,10.0,NW,9.2,-,N/A,,Clear,310,2013-03-11 13:53:00
9:53 AM,46.9,28.0,48,30.15,10.0,NW,13.8,-,N/A,,Clear,320,2013-03-11 14:53:00
10:53 AM,50.0,28.9,44,30.15,10.0,WNW,12.7,-,N/A,,Clear,300,2013-03-11 15:53:00
11:53 AM,51.1,24.1,35,30.15,10.0,NW,12.7,23.0,N/A,,Clear,310,2013-03-11 16:53:00
12:53 PM,54.0,24.1,31,30.13,10.0,NW,17.3,26.5,N/A,,Clear,310,2013-03-11 17:53:00
1:53 PM,55.9,21.9,27,30.10,10.0,NW,11.5,24.2,N/A,,Clear,310,2013-03-11 18:53:00
2:53 PM,57.9,21.0,24,30.07,10.0,NNW,19.6,26.5,N/A,,Clear,340,2013-03-11 19:53:00
3:53 PM,60.1,24.1,25,30.04,10.0,NNW,16.1,23.0,N/A,,Clear,330,2013-03-11 20:53:00
4:53 PM,59.0,21.9,24,30.03,10.0,WNW,12.7,21.9,N/A,,Clear,300,2013-03-11 21:53:00
5:53 PM,60.1,21.9,23,30.02,10.0,NW,13.8,20.7,N/A,,Clear,310,2013-03-11 22:53:00
6:53 PM,59.0,23.0,25,30.03,10.0,NNW,6.9,-,N/A,,Clear,330,2013-03-11 23:53:00
7:53 PM,55.9,23.0,28,30.04,10.0,NW,3.5,-,N/A,,Clear,320,2013-03-12 00:53:00
8:53 PM,51.1,27.0,39,30.06,10.0,Calm,Calm,-,N/A,,Clear,0,2013-03-12 01:53:00
9:53 PM,48.0,36.0,63,30.07,10.0,Calm,Calm,-,N/A,,Clear,0,2013-03-12 02:53:00
10:53 PM,45.0,34.0,65,30.09,10.0,Calm,Calm,-,N/A,,Clear,0,2013-03-12 03:53:00
11:53 PM,44.1,32.0,63,30.09,10.0,Calm,Calm,-,N/A,,Clear,0,2013-03-12 04:53:00